Погода в Новоалександрове

Россия / Владимирская область     56°13′16″N   40°15′48″E
темп.,
°C
ветер,
м/с
пор.,
м/с
влажн.,
%
обл.,
%
осадки,
мм/ч
давл.,
гПа
погр.,
м
21 июня, пн
пн2100:00+18зюз34885 0.0 102143
03:00+17зюз339238 0.0 102244
06:00+20юз248888 0.0 1021107
09:00+24юз347389 0.0 1022392
12:00+26юз2362100 0.0 1022824
15:00+28зюз135015 0.0 10211168
18:00+28всв1162100 0.0 1020126
21:00+21юз2382100 0.0 102139
22 июня, вт
вт2200:00+20юз2280100 0.0 102119
03:00+19зюз228794 0.0 102216
06:00+20ююз238647 0.0 1022112
09:00+25ююз227113 0.0 1022422
12:00+28юз23582 0.0 10221178
15:00+29зюз13510 0.0 10211396
18:00+30в12632 0.0 10201024
21:00+23ю11785 0.0 102012
23 июня, ср
ср2300:00+21з22830 0.0 102119
03:00+20зюз33862 0.0 102128
06:00+22зюз23850 0.0 1022111
09:00+26з22710 0.0 1022399
12:00+29зсз22600 0.0 1021853
15:00+30зсз11555 0.0 10211050
18:00+30ссз116510 0.0 1020549
21:00+24ссз117147 0.0 102011
24 июня, чт
чт2400:00+22зюз227915 0.0 102019
03:00+21з11845 0.0 102011
06:00+23зсз23805 0.0 102077
09:00+27з22675 0.0 1020358
12:00+30з225751 0.0 1019844
15:00+31зюз12525 0.0 10191276
18:00+31св22644 0.0 1017488
21:00+24ююз22790 0.0 101619
25 июня, пт
пт2500:00+20з22833 1.0 101812
03:00+19юз228624 1.2 101617
06:00+22зюз24885 0.0 1016107
09:00+27зюз34700 0.0 1016390
12:00+30зсз34570 0.0 10161192
15:00+30ссз33560 0.0 1015968
18:00+28сз4669100 0.2 1014292
21:00+19зюз1188100 3.9 101417